Le nostre stazioni meteo in Italia

Pubblicità
Il mio iltempo24.it
Civitavecchia, Italia (16214): Temperatura & dewpoint: 07.12.2019 22:00:00 - 13.12.2019 22:00:00 (CET)Civitavecchia, Italia (16214): velocità del vento: 07.12.2019 22:00:00 - 13.12.2019 22:00:00 (CET)Civitavecchia, Italia (16214): direzione del vento: 07.12.2019 22:00:00 - 13.12.2019 22:00:00 (CET)Civitavecchia, Italia (16214): reduced air pressure: 07.12.2019 22:00:00 - 13.12.2019 22:00:00 (CET)Civitavecchia, Italia (16214): visibility: 07.12.2019 22:00:00 - 13.12.2019 22:00:00 (CET)Civitavecchia, Italia (16214): ore di luce: 07.12.2019 22:00:00 - 13.12.2019 22:00:00 (CET)
Data & Tempo tt [°C] td [°C] ff [km/h] ff [kn] dd ppp [hPa] vv [km] sd [min]
13.12.2019 22:00:00 14,5 6,4 70 38 NO 988,9 - 0
13.12.2019 21:00:00 - - - - - - - -
13.12.2019 20:00:00 - - - - - - - -
13.12.2019 19:00:00 14,1 6,9 70 38 NO 986,7 7 0
13.12.2019 18:00:00 - - - - - - - -
13.12.2019 17:00:00 - - - - - - - -
13.12.2019 16:00:00 16,9 11,9 50 27 O 984,9 8 22
13.12.2019 15:00:00 - - - - - - - -
13.12.2019 14:00:00 - - - - - - - -
13.12.2019 13:00:00 15,0 12,0 46 25 SO 990,3 7 0
13.12.2019 12:00:00 - - - - - - - -
13.12.2019 11:00:00 - - - - - - - -
13.12.2019 10:00:00 14,5 11,7 48 26 SSO 994,5 10 0
13.12.2019 09:00:00 - - - - - - - -
13.12.2019 08:00:00 - - - - - - - -
13.12.2019 07:00:00 12,9 9,9 26 14 S 998,0 4,0 0
13.12.2019 06:00:00 - - - - - - - -
13.12.2019 05:00:00 - - - - - - - -
13.12.2019 04:00:00 9,6 5,1 15 8 ESE 1000,8 - 0
13.12.2019 03:00:00 - - - - - - - -
13.12.2019 02:00:00 - - - - - - - -
13.12.2019 01:00:00 8,4 4,5 13 7 E 1003,3 - 0
13.12.2019 00:00:00 - - - - - - - -
12.12.2019 23:00:00 - - - - - - - -
12.12.2019 22:00:00 8,5 4,4 9 5 ENE 1004,5 - 0
12.12.2019 21:00:00 - - - - - - - -
12.12.2019 20:00:00 - - - - - - - -
12.12.2019 19:00:00 8,7 6,0 8 4 ESE 1004,8 15 0
12.12.2019 18:00:00 - - - - - - - -
12.12.2019 17:00:00 - - - - - - - -
12.12.2019 16:00:00 10,2 7,7 5 3 E 1003,7 18 24
12.12.2019 15:00:00 - - - - - - - -
12.12.2019 14:00:00 - - - - - - - -
12.12.2019 13:00:00 10,3 6,8 11 6 SE 1004,4 15 14
12.12.2019 12:00:00 - - - - - - - -
12.12.2019 11:00:00 - - - - - - - -
12.12.2019 10:00:00 9,8 -1,1 13 7 E 1005,4 25 0
12.12.2019 09:00:00 - - - - - - - -
12.12.2019 08:00:00 - - - - - - - -
12.12.2019 07:00:00 9,1 -0,4 8 4 E 1005,2 18 0
12.12.2019 06:00:00 - - - - - - - -
12.12.2019 05:00:00 - - - - - - - -
12.12.2019 04:00:00 8,9 -2,0 11 6 E 1005,9 - 0
12.12.2019 03:00:00 - - - - - - - -
12.12.2019 02:00:00 - - - - - - - -
12.12.2019 01:00:00 8,3 -4,2 9 5 E 1008,5 - 0
12.12.2019 00:00:00 - - - - - - - -
11.12.2019 23:00:00 - - - - - - - -
11.12.2019 22:00:00 7,3 -1,2 8 4 - 1010,0 - 0
11.12.2019 21:00:00 - - - - - - - -
11.12.2019 20:00:00 - - - - - - - -
11.12.2019 19:00:00 9,3 -0,1 18 10 NNO 1010,8 20 0
11.12.2019 18:00:00 - - - - - - - -
11.12.2019 17:00:00 - - - - - - - -
11.12.2019 16:00:00 11,8 -0,3 4 2 N 1010,9 60 60
11.12.2019 15:00:00 - - - - - - - -
11.12.2019 14:00:00 - - - - - - - -
11.12.2019 13:00:00 12,1 -0,2 24 13 NNO 1012,2 60 60
11.12.2019 12:00:00 - - - - - - - -
11.12.2019 11:00:00 - - - - - - - -
11.12.2019 10:00:00 9,9 -0,1 22 12 NNO 1014,0 40 60
11.12.2019 09:00:00 - - - - - - - -
11.12.2019 08:00:00 - - - - - - - -
11.12.2019 07:00:00 8,6 -0,5 34 18 N 1013,3 40 0
11.12.2019 06:00:00 - - - - - - - -
11.12.2019 05:00:00 - - - - - - - -
11.12.2019 04:00:00 9,6 1,8 21 11 NNO 1014,5 - 0
11.12.2019 03:00:00 - - - - - - - -
11.12.2019 02:00:00 - - - - - - - -
11.12.2019 01:00:00 - - - - - - - -
11.12.2019 00:00:00 - - - - - - - -
10.12.2019 23:00:00 - - - - - - - -
10.12.2019 22:00:00 12,0 0,7 24 13 NNO 1014,6 - 0
10.12.2019 21:00:00 - - - - - - - -
10.12.2019 20:00:00 - - - - - - - -
10.12.2019 19:00:00 12,5 1,3 28 15 N 1013,2 30 0
10.12.2019 18:00:00 - - - - - - - -
10.12.2019 17:00:00 - - - - - - - -
10.12.2019 16:00:00 14,1 3,3 26 14 N 1012,3 40 60
10.12.2019 15:00:00 - - - - - - - -
10.12.2019 14:00:00 - - - - - - - -
10.12.2019 13:00:00 15,3 3,6 16 9 NNE 1011,1 40 60
10.12.2019 12:00:00 - - - - - - - -
10.12.2019 11:00:00 - - - - - - - -
10.12.2019 10:00:00 13,0 3,8 16 9 N 1010,0 20 60
10.12.2019 09:00:00 - - - - - - - -
10.12.2019 08:00:00 - - - - - - - -
10.12.2019 07:00:00 11,5 5,9 26 14 N 1008,3 18 0
10.12.2019 06:00:00 - - - - - - - -
10.12.2019 05:00:00 - - - - - - - -
10.12.2019 04:00:00 11,8 5,2 8 4 ENE 1007,9 - 0
10.12.2019 03:00:00 - - - - - - - -
10.12.2019 02:00:00 - - - - - - - -
10.12.2019 01:00:00 12,3 7,6 5 3 SE 1008,1 - 0
10.12.2019 00:00:00 - - - - - - - -
09.12.2019 23:00:00 - - - - - - - -
09.12.2019 22:00:00 13,3 7,0 16 9 NNO 1008,0 - 0
09.12.2019 21:00:00 - - - - - - - -
09.12.2019 20:00:00 - - - - - - - -
09.12.2019 19:00:00 13,8 7,5 16 9 N 1008,5 4,0 0
09.12.2019 18:00:00 - - - - - - - -
09.12.2019 17:00:00 - - - - - - - -
09.12.2019 16:00:00 15,8 10,9 31 17 NO 1007,8 20 54
09.12.2019 15:00:00 - - - - - - - -
09.12.2019 14:00:00 - - - - - - - -
09.12.2019 13:00:00 15,8 12,7 18 10 SSO 1009,6 25 0
09.12.2019 12:00:00 - - - - - - - -
09.12.2019 11:00:00 - - - - - - - -
09.12.2019 10:00:00 15,2 10,0 13 7 SSO 1012,5 25 45
09.12.2019 09:00:00 - - - - - - - -
09.12.2019 08:00:00 - - - - - - - -
09.12.2019 07:00:00 15,1 9,4 26 14 SSO 1012,8 18 0
09.12.2019 06:00:00 - - - - - - - -
09.12.2019 05:00:00 - - - - - - - -
09.12.2019 04:00:00 15,0 10,3 24 13 SO 1015,0 - 0
09.12.2019 03:00:00 - - - - - - - -
09.12.2019 02:00:00 - - - - - - - -
09.12.2019 01:00:00 15,4 11,0 21 11 SO 1017,1 - 0
09.12.2019 00:00:00 - - - - - - - -
08.12.2019 23:00:00 - - - - - - - -
08.12.2019 22:00:00 15,9 11,0 18 10 SO 1018,5 - 0
08.12.2019 21:00:00 - - - - - - - -
08.12.2019 20:00:00 - - - - - - - -
08.12.2019 19:00:00 15,8 9,5 16 9 SO 1019,3 - 0
08.12.2019 18:00:00 - - - - - - - -
08.12.2019 17:00:00 - - - - - - - -
08.12.2019 16:00:00 15,8 10,4 18 10 OSO 1020,1 - 8
08.12.2019 15:00:00 - - - - - - - -
08.12.2019 14:00:00 - - - - - - - -
08.12.2019 13:00:00 15,7 11,4 22 12 SSO 1020,8 - 9
08.12.2019 12:00:00 - - - - - - - -
08.12.2019 11:00:00 - - - - - - - -
08.12.2019 10:00:00 16,0 12,0 21 11 S 1021,3 - 6
08.12.2019 09:00:00 - - - - - - - -
08.12.2019 08:00:00 - - - - - - - -
08.12.2019 07:00:00 13,6 11,5 11 6 ESE 1020,7 - 0
08.12.2019 06:00:00 - - - - - - - -
08.12.2019 05:00:00 - - - - - - - -
08.12.2019 04:00:00 13,2 11,2 11 6 E 1020,3 - 0
08.12.2019 03:00:00 - - - - - - - -
08.12.2019 02:00:00 - - - - - - - -
08.12.2019 01:00:00 14,0 12,1 9 5 ESE 1020,9 - 0
08.12.2019 00:00:00 - - - - - - - -
07.12.2019 23:00:00 - - - - - - - -
07.12.2019 22:00:00 14,5 11,9 8 4 ESE 1021,1 - 0

tt = Temperatura
td = dewpoint
ff = velocità del vento
dd = direzione del vento
ppp = reduced air pressure
vv = visibility
sd = ore di luce

Stazioni seguenti

WeatherPro
AMSI
MeteoEarth